TimePST,TemperatureF,Dew PointF,Humidity,Sea Level PressureIn,VisibilityMPH,Wind Direction,Wind SpeedMPH,Gust SpeedMPH,PrecipitationIn,Events,Conditions,WindDirDegrees,DateUTC
12:15 AM,35.6,33.8,93,30.03,10.0,Calm,Calm,-,N/A,,Overcast,0,2013-02-21 08:15:00
12:35 AM,37.4,35.6,93,30.03,10.0,Calm,Calm,-,N/A,,Overcast,0,2013-02-21 08:35:00
12:55 AM,37.4,33.8,87,30.05,10.0,Calm,Calm,-,N/A,,Overcast,0,2013-02-21 08:55:00
1:15 AM,37.4,35.6,93,30.05,10.0,Calm,Calm,-,N/A,,Overcast,0,2013-02-21 09:15:00
1:35 AM,37.4,35.6,93,30.05,10.0,Calm,Calm,-,N/A,,Overcast,0,2013-02-21 09:35:00
1:55 AM,37.4,35.6,93,30.04,10.0,Calm,Calm,-,N/A,,Overcast,0,2013-02-21 09:55:00
2:15 AM,37.4,35.6,93,30.04,6.0,Calm,Calm,-,N/A,,Overcast,0,2013-02-21 10:15:00
2:35 AM,37.4,35.6,93,30.05,10.0,Calm,Calm,-,N/A,,Overcast,0,2013-02-21 10:35:00
3:15 AM,37.4,35.6,93,30.04,10.0,Calm,Calm,-,N/A,,Overcast,0,2013-02-21 11:15:00
3:55 AM,37.4,35.6,93,30.05,8.0,Calm,Calm,-,N/A,,Overcast,0,2013-02-21 11:55:00
4:15 AM,37.4,35.6,93,30.03,10.0,Calm,Calm,-,N/A,,Overcast,0,2013-02-21 12:15:00
4:35 AM,37.4,35.6,93,30.03,10.0,Calm,Calm,-,N/A,,Overcast,0,2013-02-21 12:35:00
4:55 AM,39.2,35.6,87,30.04,10.0,South,4.6,-,N/A,,Overcast,190,2013-02-21 12:55:00
5:15 AM,39.2,35.6,87,30.04,7.0,SSE,3.5,-,N/A,,Overcast,160,2013-02-21 13:15:00
5:35 AM,39.2,35.6,87,30.03,10.0,SSE,5.8,-,N/A,,Overcast,150,2013-02-21 13:35:00
5:55 AM,39.2,35.6,87,30.04,10.0,SSE,5.8,-,N/A,,Overcast,150,2013-02-21 13:55:00
6:15 AM,39.2,35.6,87,30.04,8.0,SSE,5.8,-,N/A,,Overcast,160,2013-02-21 14:15:00
6:35 AM,39.2,35.6,87,30.04,10.0,SSE,9.2,-,N/A,,Overcast,150,2013-02-21 14:35:00
6:55 AM,39.2,37.4,93,30.04,10.0,SSE,9.2,-,N/A,,Overcast,150,2013-02-21 14:55:00
7:15 AM,39.2,35.6,87,30.05,10.0,SE,8.1,-,N/A,,Overcast,140,2013-02-21 15:15:00
7:35 AM,39.2,35.6,87,30.04,10.0,SSE,6.9,-,N/A,,Overcast,150,2013-02-21 15:35:00
7:55 AM,39.2,35.6,87,30.04,10.0,SE,10.4,-,N/A,,Overcast,140,2013-02-21 15:55:00
8:15 AM,39.2,35.6,87,30.05,10.0,SE,8.1,-,N/A,,Overcast,140,2013-02-21 16:15:00
8:35 AM,39.2,35.6,87,30.05,10.0,SE,9.2,-,N/A,,Overcast,140,2013-02-21 16:35:00
8:55 AM,39.2,37.4,93,30.05,10.0,SE,9.2,-,N/A,,Overcast,140,2013-02-21 16:55:00
9:15 AM,39.2,37.4,93,30.04,10.0,SSE,9.2,-,N/A,,Mostly Cloudy,150,2013-02-21 17:15:00
9:35 AM,41.0,37.4,87,30.04,10.0,SSE,11.5,-,N/A,,Overcast,160,2013-02-21 17:35:00
9:55 AM,42.8,37.4,81,30.05,10.0,SSE,10.4,-,N/A,,Overcast,160,2013-02-21 17:55:00
10:15 AM,42.8,37.4,81,30.05,10.0,SSE,11.5,-,N/A,,Overcast,160,2013-02-21 18:15:00
10:35 AM,42.8,37.4,81,30.05,10.0,SSE,12.7,-,N/A,,Overcast,160,2013-02-21 18:35:00
10:55 AM,42.8,37.4,81,30.05,10.0,SSE,13.8,18.4,N/A,,Overcast,160,2013-02-21 18:55:00
11:15 AM,42.8,37.4,81,30.05,10.0,SSE,13.8,-,N/A,,Mostly Cloudy,160,2013-02-21 19:15:00
11:35 AM,42.8,37.4,81,30.05,10.0,SSE,15.0,-,N/A,,Overcast,160,2013-02-21 19:35:00
11:55 AM,42.8,37.4,81,30.04,10.0,South,12.7,-,N/A,,Overcast,170,2013-02-21 19:55:00
12:15 PM,42.8,37.4,81,30.04,10.0,SSE,12.7,-,N/A,,Overcast,150,2013-02-21 20:15:00
12:35 PM,42.8,37.4,81,30.03,10.0,SSE,13.8,-,N/A,,Overcast,150,2013-02-21 20:35:00
12:55 PM,41.0,37.4,87,30.04,10.0,SSE,12.7,-,N/A,,Overcast,150,2013-02-21 20:55:00
1:15 PM,42.8,37.4,81,30.04,10.0,SSE,10.4,-,N/A,,Overcast,150,2013-02-21 21:15:00
1:35 PM,41.0,35.6,81,30.03,10.0,SSE,12.7,-,N/A,,Overcast,150,2013-02-21 21:35:00
1:55 PM,41.0,37.4,87,30.03,10.0,SE,10.4,-,N/A,,Overcast,140,2013-02-21 21:55:00
2:15 PM,42.8,37.4,81,30.03,10.0,SSE,9.2,-,N/A,,Overcast,150,2013-02-21 22:15:00
2:35 PM,41.0,37.4,87,30.04,10.0,SE,8.1,-,N/A,,Overcast,140,2013-02-21 22:35:00
2:55 PM,41.0,37.4,87,30.04,10.0,SSE,8.1,-,N/A,,Overcast,160,2013-02-21 22:55:00
3:15 PM,41.0,37.4,87,30.04,10.0,SE,13.8,-,N/A,,Overcast,140,2013-02-21 23:15:00
3:35 PM,41.0,37.4,87,30.04,10.0,SE,12.7,-,N/A,,Overcast,140,2013-02-21 23:35:00
3:55 PM,39.2,37.4,93,30.03,10.0,SE,13.8,-,N/A,,Overcast,140,2013-02-21 23:55:00
4:15 PM,39.2,37.4,93,30.04,10.0,SE,11.5,-,N/A,,Mostly Cloudy,130,2013-02-22 00:15:00
4:35 PM,39.2,37.4,93,30.04,10.0,SE,11.5,-,N/A,,Overcast,140,2013-02-22 00:35:00
4:55 PM,39.2,37.4,93,30.04,10.0,SSE,10.4,-,N/A,,Overcast,150,2013-02-22 00:55:00
5:15 PM,39.2,37.4,93,30.05,10.0,SE,11.5,-,N/A,,Overcast,140,2013-02-22 01:15:00
5:35 PM,39.2,37.4,93,30.06,10.0,SE,9.2,-,N/A,,Overcast,130,2013-02-22 01:35:00
5:55 PM,39.2,37.4,93,30.07,10.0,SE,8.1,-,N/A,,Overcast,140,2013-02-22 01:55:00
6:15 PM,39.2,35.6,87,30.07,10.0,SSE,3.5,-,N/A,,Overcast,160,2013-02-22 02:15:00
6:35 PM,39.2,37.4,93,30.06,10.0,Calm,Calm,-,N/A,,Overcast,0,2013-02-22 02:35:00
6:55 PM,39.2,37.4,93,30.06,10.0,Calm,Calm,-,N/A,,Overcast,0,2013-02-22 02:55:00
7:15 PM,39.2,37.4,93,30.06,8.0,Calm,Calm,-,N/A,,Overcast,0,2013-02-22 03:15:00
7:35 PM,39.2,37.4,93,30.06,10.0,SSE,3.5,-,N/A,,Mostly Cloudy,160,2013-02-22 03:35:00
7:55 PM,39.2,37.4,93,30.06,10.0,Calm,Calm,-,N/A,,Overcast,0,2013-02-22 03:55:00
8:15 PM,39.2,37.4,93,30.07,10.0,Calm,Calm,-,N/A,,Overcast,0,2013-02-22 04:15:00
8:35 PM,39.2,37.4,93,30.07,10.0,SSE,3.5,-,N/A,,Overcast,160,2013-02-22 04:35:00
8:55 PM,41.0,37.4,87,30.07,10.0,SSE,3.5,-,N/A,,Overcast,150,2013-02-22 04:55:00
9:15 PM,41.0,37.4,87,30.08,10.0,Calm,Calm,-,N/A,,Overcast,0,2013-02-22 05:15:00
9:35 PM,41.0,37.4,87,30.08,10.0,SSE,3.5,-,N/A,,Overcast,160,2013-02-22 05:35:00
9:55 PM,39.2,37.4,93,30.08,10.0,Calm,Calm,-,N/A,,Overcast,0,2013-02-22 05:55:00
10:15 PM,41.0,37.4,87,30.07,10.0,SE,5.8,-,N/A,,Overcast,140,2013-02-22 06:15:00
10:55 PM,41.0,37.4,87,30.05,10.0,SE,9.2,-,N/A,,Overcast,140,2013-02-22 06:55:00
11:15 PM,41.0,37.4,87,30.05,10.0,SE,6.9,-,N/A,,Overcast,130,2013-02-22 07:15:00
11:35 PM,41.0,37.4,87,30.06,10.0,SE,9.2,-,N/A,,Overcast,140,2013-02-22 07:35:00
11:55 PM,41.0,37.4,87,30.05,10.0,SE,8.1,-,N/A,,Overcast,140,2013-02-22 07:55:00